sat.trackr.live / text

‹ back to catalog

ARIRANG-2 (KOMPSAT-2)

NORAD 29268 · 2006-031A

PAYLOAD ACTIVE UNKNOWN

§ Identity

Operator
Country
SKOR
Launch date
2006-07-28
Launch site
PLMSC
Launch vehicle
Mass (kg)
RCS (m²)
2.07

Purposes: earth_obs

External: N2YO · Heavens-Above · Gunter

§ Orbital elements

Epoch: 2026-05-25T05:04:16.554144Z

Period
98.32 min
Inclination
97.8314°
Eccentricity
0.0015220
Mean motion
14.64641736 rev/d
Perigee alt
667.5 km
Apogee alt
689.0 km
Semi-major
7,056.4 km
B*
1.4437e-5
RAAN
330.7700°
Arg perigee
141.7985°
Mean anomaly
329.3397°
Rev number
5,811

§ Raw data

ARIRANG-2 (KOMPSAT-2)1 29268U 06031A   26145.21130271  .00000032  00000+0  14437-4 0  99992 29268  97.8314 330.7700 0015220 141.7985 329.3397 14.64641736 58119

JSON: /api/v1/satellites/29268 · /tle

For live sub-satellite position, see the globe view (requires WebGL).

§ Visibility from observer

Set your observer location to see the next 7 days of passes ≥ 10°. The values pass through the URL so the page stays shareable.

No JS? Fill the form by hand. The geolocation button needs JavaScript.